Regional Weather Roundup
Issued by NWS

Home | Current Version | Previous Version | Text Only | Print | Product List | Glossary Off
Versions: 1 2 3 4 5 6 7 8 9 10 11 12 13 14 15 16 17 18 19 20 21 22 23 24 25 26 27 28 29 30 31 32 33 34 35 36 37 38 39 40 41 42 43 44 45 46 47 48 49 50

000
ASUS43 KLMK 012210
RWRKY
KENTUCKY REGIONAL WEATHER ROUNDUP
NATIONAL WEATHER SERVICE LOUISVILLE KY
600 PM EDT WED OCT 01 2014

NOTE "FAIR" INDICATES FEW OR NO CLOUDS BELOW 12,000 FEET
WITH NO SIGNIFICANT WEATHER AND/OR OBSTRUCTIONS TO VISIBILITY.

KYZ001>023-026-027-061>063-070>075-012300-
WESTERN AND SOUTH CENTRAL KENTUCKY

CITY           SKY/WX    TMP DP  RH WIND       PRES   REMARKS
PADUCAH        MOSUNNY   84  60  44 S6        29.86S
HENDERSON      NOT AVBL
OWENSBORO      SUNNY     87  56  34 CALM      29.90S
HOPKINSVILLE   SUNNY     86  54  33 S8        29.90F
BOWLING GREEN  MOSUNNY   83  54  36 E9        29.93S
GLASGOW        SUNNY     84  50  31 CALM      29.94S
$$

KYZ024-025-028>034-038-045-046-053-012300-
NORTH CENTRAL KENTUCKY

CITY           SKY/WX    TMP DP  RH WIND       PRES   REMARKS
LOUISVILLE/SDF MOSUNNY   84  55  36 W3        29.93S
LOUISVILLE/LOU SUNNY     82  53  36 CALM      29.94S
FORT KNOX      MOSUNNY   81  59  47 NE7       29.93S
$$

KYZ035>037-039>044-047>052-055>060-089>105-012300-
NORTHEAST KENTUCKY

CITY           SKY/WX    TMP DP  RH WIND       PRES   REMARKS
LEXINGTON      SUNNY     81  56  42 N5        29.98S
COVINGTON      MOSUNNY   77  54  44 N3        29.98S
FRANKFORT      SUNNY     80  55  42 CALM      29.96S
$$

KYZ054-064>069-076>088-106>120-012300-
SOUTHEAST KENTUCKY

CITY           SKY/WX    TMP DP  RH WIND       PRES   REMARKS
JACKSON        PTSUNNY   75  59  57 CALM      30.01S
LONDON         SUNNY     81  52  36 W6        30.00S
SOMERSET       SUNNY     81  50  34 S6        29.98F
MIDDLESBORO    SUNNY     78  58  49 CALM      30.00S
MONTICELLO     PTCLDY    82  54  38 CALM      29.99S
$$




USA.gov is the U.S. government's official web portal to all federal, state and local government web resources and services.